Flight Track Log - Related Links

Times and Time Zones

All times are in EDT time to prevent confusion due to time zone crossing. See the JUS827 flight status page for this flight to view local times or setup timezone preferences in your user account.

Time Position Orientation Groundspeed Altitude Reporting Facility
EDT Latitude Longitude Course Direction KTS MPH feet Rate Location/Type
Tue 04:21:43 PM 42.2444 -83.5592 284° West 192 221 1,800  Level Cleveland Center
Tue 04:23:08 PM 42.2628 -83.6583 284° West 251 289 5,600 2,735 Climbing Cleveland Center
Tue 04:24:10 PM 42.3244 -83.6922 338° Northwest 267 307 8,500 2,531 Climbing Cleveland Center
Tue 04:25:16 PM 42.3983 -83.6564 20° North 308 354 11,000 2,143 Climbing Cleveland Center
Tue 04:26:16 PM 42.4725 -83.6039 28° Northeast 303 349 13,000 1,900 Climbing Cleveland Center
Tue 04:27:16 PM 42.5572 -83.5572 22° Northeast 303 349 14,800 1,850 Climbing Cleveland Center
Tue 04:28:16 PM 42.6481 -83.5161 18° North 323 372 16,700 2,000 Climbing Cleveland Center
Tue 04:29:16 PM 42.7386 -83.4694 21° North 337 388 18,800 2,100 Climbing Cleveland Center
Tue 04:30:16 PM 42.8194 -83.4053 30° Northeast 337 388 20,900 1,650 Climbing Cleveland Center
Tue 04:31:16 PM 42.9044 -83.3383 30° Northeast 337 388 22,100 1,200 Climbing Cleveland Center
Tue 04:32:16 PM 42.9919 -83.3450 357° North 310 357 23,300 950 Climbing Cleveland Center
Tue 04:33:16 PM 43.0872 -83.3692 North 318 366 24,000 1,300 Climbing Cleveland Center
Tue 04:34:16 PM 43.1714 -83.4269 333° Northwest 329 379 25,900 1,800 Climbing Cleveland Center
Tue 04:35:16 PM 43.2272 -83.5181 310° West 309 356 27,600 1,100 Climbing Cleveland Center
Tue 04:36:16 PM 43.2600 -83.6278 292° West 300 345 28,100 600 Climbing Cleveland Center
Tue 04:37:16 PM 43.3025 -83.7469 296° West 317 365 28,800 900 Climbing Cleveland Center
Tue 04:38:16 PM 43.3581 -83.8556 305° West 334 384 29,900 1,150 Climbing Cleveland Center
Tue 04:39:16 PM 43.4219 -83.9503 313° West 340 391 31,100 863 Climbing Cleveland Center
Tue 04:40:42 PM 43.5339 -84.0497 327° Northwest 335 386 32,000 121 Climbing Minneapolis Center
Tue 04:41:45 PM 43.6333 -84.0761 349° North 356 410 31,400 -480 Descending Minneapolis Center
Tue 04:42:47 PM 43.7364 -84.0939 353° North 366 421 31,000 -194 Descending Minneapolis Center
Tue 04:43:49 PM 43.8475 -84.1292 347° North 355 409 31,000  Level Minneapolis Center
Tue 04:44:51 PM 43.9219 -84.1656 341° North 311 358 31,000  Level Minneapolis Center
Tue 04:45:53 PM 43.9958 -84.1944 344° North 281 323 31,000  Level Minneapolis Center
Tue 04:46:55 PM 44.0681 -84.2169 347° North 268 308 31,000  Level Minneapolis Center
Tue 04:47:57 PM 44.1450 -84.2267 355° North 272 313 31,000 97 Level Minneapolis Center
Tue 04:48:59 PM 44.2544 -84.2325 358° North 312 359 31,200 532 Climbing Minneapolis Center
Tue 04:50:01 PM 44.3450 -84.2478 353° North 324 373 32,100 823 Climbing Minneapolis Center
Tue 04:51:03 PM 44.4364 -84.2622 354° North 328 377 32,900 435 Climbing Minneapolis Center
Tue 04:52:05 PM 44.5283 -84.2753 354° North 332 382 33,000 48 Climbing Minneapolis Center
Tue 04:53:07 PM 44.6167 -84.2822 357° North 329 379 33,000 48 Level Minneapolis Center
Tue 04:54:09 PM 44.7000 -84.2992 352° North 320 368 33,100 484 Climbing Minneapolis Center
Tue 04:55:11 PM 44.8031 -84.3244 350° North 315 362 34,000 919 Climbing Minneapolis Center
Tue 04:56:13 PM 44.8914 -84.3422 352° North 317 365 35,000 484 Climbing Minneapolis Center
Tue 04:57:15 PM 44.9772 -84.3528 355° North 316 364 35,000 -96 Level Minneapolis Center
Tue 04:58:18 PM 45.0575 -84.3650 354° North 308 354 34,800 -1,152 Descending Minneapolis Center
Tue 04:59:20 PM 45.0625 -84.4778 274° West 324 373 32,600 -1,306 Descending Minneapolis Center
Tue 05:00:22 PM 44.9272 -84.4525 172° South 404 465 32,100 -581 Descending Minneapolis Center
Tue 05:01:24 PM 44.8122 -84.3883 158° South 432 497 31,400 -1,113 Descending Minneapolis Center
Tue 05:02:26 PM 44.7028 -84.3208 156° South 435 501 29,800 -2,177 Descending Minneapolis Center
Tue 05:03:28 PM 44.5908 -84.2506 156° South 437 503 26,900 -2,371 Descending Minneapolis Center
Tue 05:04:30 PM 44.4728 -84.1961 162° South 440 506 24,900 -1,548 Descending Minneapolis Center
Tue 05:05:32 PM 44.3594 -84.1611 168° South 427 491 23,700 -1,452 Descending Minneapolis Center
Tue 05:06:34 PM 44.2322 -84.1236 168° South 407 468 21,900 -1,984 Descending Minneapolis Center
Tue 05:07:36 PM 44.1278 -84.0972 170° South 399 459 19,600 -1,355 Descending Minneapolis Center
Tue 05:08:38 PM 44.0111 -84.0608 167° South 399 459 19,100 -290 Descending Minneapolis Center
Tue 05:09:40 PM 43.9100 -84.0306 168° South 391 450 19,000 -48 Descending Minneapolis Center
Tue 05:10:43 PM 43.8067 -84.0003 168° South 386 444 19,000  Level Minneapolis Center
Tue 05:11:45 PM 43.7081 -83.9719 168° South 378 435 19,000  Level Minneapolis Center
Tue 05:12:47 PM 43.6097 -83.9433 168° South 371 427 19,000 -629 Level Minneapolis Center
Tue 05:13:49 PM 43.4931 -83.9111 169° South 365 420 17,700 -2,323 Descending Minneapolis Center
Tue 05:14:51 PM 43.3917 -83.8831 169° South 365 420 14,200 -2,661 Descending Minneapolis Center
Tue 05:15:53 PM 43.2936 -83.8556 168° South 364 419 12,200 -1,500 Descending Minneapolis Center
Tue 05:16:55 PM 43.2019 -83.8294 168° South 357 411 11,100 -1,355 Descending Minneapolis Center
Tue 05:17:57 PM 43.1194 -83.8061 168° South 341 392 9,400 -1,742 Descending Minneapolis Center
Tue 05:18:59 PM 43.0442 -83.7856 169° South 318 366 7,500 -2,057 Descending Minneapolis Center
Tue 05:19:42 PM 42.9828 -83.7761 174° South 266 306 5,800 -2,025 Descending Cleveland Center
Tue 05:20:19 PM 42.9372 -83.7708 175° South 259 298 4,800 -585 Descending Cleveland Center
Tue 05:21:04 PM 42.8894 -83.7656 175° South 252 290 5,000 114 Climbing Cleveland Center
Tue 05:22:04 PM 42.8189 -83.7506 171° South 252 290 5,000  Level Cleveland Center
Tue 05:22:39 PM 42.7794 -83.7431 172° South 258 297 5,000 -71 Level Cleveland Center
Tue 05:23:28 PM 42.7233 -83.7375 176° South 245 282 4,900 -71 Descending Cleveland Center
Tue 05:24:04 PM 42.6903 -83.7272 167° South 244 281 4,900  Level Cleveland Center
Tue 05:25:30 PM 42.6031 -83.7144 174° South 212 244 4,900 43 Level Cleveland Center
Tue 05:26:25 PM 42.5472 -83.7033 172° South 214 246 5,000 -517 Climbing Cleveland Center
Tue 05:27:26 PM 42.4869 -83.6917 172° South 209 241 3,900 -493 Descending Cleveland Center
Tue 05:28:39 PM 42.4208 -83.6744 169° South 199 229 3,900  Level Cleveland Center
Tue 05:29:27 PM 42.3817 -83.6583 163° South 207 238 3,900 -273 Level Cleveland Center
Tue 05:30:29 PM 42.3711 -83.5847 101° East 215 247 3,400 -639 Descending Cleveland Center
Tue 05:31:29 PM 42.3306 -83.5325 136° Southeast 188 216 2,600 -793 Descending Cleveland Center
Tue 05:32:30 PM 42.2897 -83.5025 151° Southeast 165 190 1,800 -787 Descending Cleveland Center

Login

Don't have an account? Register now (free) for customized features, flight alerts, and more!